Back to catalog

STARLINK-37948

AliveCommunicationsSSO
NORAD 69670·PAYLOAD·🇺🇸 United States

Launched Jun 21, 2026 from Vandenberg Space Force Base

Loading…

Next Passes (next 24 hours)

TLE

FreshSource: CelesTrak SupGP

Epoch: Sep 14, 2026, 23:35 UTC

1 69670C 26143X   26257.98312500  .00049960  00000+0  15511-2 0  2573
2 69670  97.2836 301.2722 0000857  93.0432  77.2406 15.33410513    16

Track STARLINK-37948 in real time with AllMySat

Download on the App Store